Precipitable_Water
0.28 0.27 0.25 0.27 0.31 0.31 0.29 0.27 0.24 0.29 0.35 0.30 0.30 0.31 0.35 0.43 0.44 0.46 0.48 0.50 0.55 0.60 0.73 0.84 0.89 0.93 0.97 1.11 1.15 1.17 1.19 1.15 1.01 0.93 0.91 0.93 0.87 0.89 0.88 0.88 0.87 0.84 0.82 0.80
0.32 0.27 0.34 0.34 0.32 0.31 0.32 0.28 0.28 0.32 0.32 0.30 0.34 0.34 0.43 0.47 0.48 0.49 0.51 0.55 0.60 0.66 0.71 0.79 0.85 0.92 0.98 0.98 0.96 0.95 0.94 0.94 0.94 0.95 0.95 0.92 0.88 0.86 0.86 0.87 0.83 0.81 0.76 0.71
0.26 0.28 0.32 0.35 0.33 0.28 0.29 0.28 0.28 0.29 0.30 0.30 0.33 0.33 0.40 0.48 0.50 0.51 0.55 0.60 0.65 0.68 0.69 0.73 0.77 0.78 0.80 0.82 0.86 0.84 0.83 0.84 0.85 0.86 0.85 0.83 0.83 0.81 0.77 0.73 0.71 0.67 0.65 0.63
0.30 0.34 0.32 0.27 0.23 0.28 0.21 0.36 0.33 0.29 0.24 0.20 0.32 0.25 0.38 0.43 0.43 0.48 0.53 0.59 0.63 0.66 0.68 0.68 0.66 0.64 0.66 0.68 0.71 0.72 0.73 0.74 0.76 0.76 0.74 0.73 0.72 0.66 0.66 0.63 0.62 0.60 0.59 0.55
0.28 0.31 0.32 0.27 0.27 0.27 0.26 0.31 0.26 0.23 0.20 0.21 0.29 0.28 0.36 0.43 0.40 0.46 0.55 0.61 0.64 0.64 0.60 0.57 0.61 0.63 0.65 0.68 0.68 0.69 0.70 0.70 0.72 0.71 0.67 0.63 0.58 0.55 0.57 0.58 0.56 0.57 0.59 0.58
0.34 0.39 0.32 0.29 0.32 0.32 0.33 0.29 0.31 0.31 0.26 0.18 0.31 0.31 0.33 0.39 0.43 0.50 0.59 0.60 0.62 0.60 0.59 0.59 0.63 0.66 0.66 0.69 0.68 0.68 0.67 0.67 0.69 0.68 0.67 0.64 0.58 0.57 0.56 0.55 0.54 0.55 0.57 0.54
0.31 0.30 0.32 0.36 0.30 0.33 0.30 0.26 0.21 0.21 0.21 0.22 0.37 0.36 0.39 0.48 0.54 0.55 0.57 0.59 0.62 0.64 0.67 0.69 0.66 0.64 0.65 0.68 0.72 0.72 0.73 0.72 0.71 0.69 0.67 0.65 0.61 0.59 0.56 0.55 0.56 0.58 0.56 0.59
0.27 0.26 0.30 0.33 0.36 0.30 0.28 0.26 0.23 0.18 0.23 0.29 0.37 0.30 0.36 0.53 0.58 0.63 0.60 0.63 0.65 0.66 0.67 0.68 0.70 0.69 0.70 0.72 0.72 0.72 0.71 0.71 0.73 0.70 0.66 0.65 0.63 0.61 0.61 0.63 0.62 0.63 0.57 0.55
0.32 0.27 0.31 0.28 0.36 0.38 0.27 0.20 0.28 0.21 0.25 0.19 0.27 0.34 0.44 0.49 0.51 0.55 0.60 0.62 0.59 0.63 0.64 0.68 0.71 0.73 0.71 0.70 0.68 0.70 0.71 0.69 0.66 0.63 0.63 0.65 0.64 0.62 0.61 0.57 0.48 0.46 0.45 0.47
0.37 0.19 0.28 0.34 0.36 0.32 0.24 0.29 0.18 0.18 0.11 0.13 0.23 0.28 0.31 0.40 0.45 0.48 0.49 0.50 0.57 0.63 0.67 0.69 0.70 0.69 0.67 0.67 0.68 0.67 0.66 0.62 0.63 0.62 0.60 0.57 0.53 0.51 0.47 0.42 0.42 0.47 0.49 0.51
0.38 0.23 0.27 0.35 0.30 0.24 0.26 0.22 0.23 0.22 0.20 0.13 0.15 0.22 0.38 0.41 0.44 0.44 0.47 0.52 0.59 0.65 0.67 0.67 0.68 0.67 0.65 0.65 0.62 0.59 0.59 0.58 0.55 0.52 0.49 0.43 0.43 0.45 0.46 0.44 0.44 0.47 0.49 0.53
0.36 0.26 0.22 0.22 0.29 0.30 0.28 0.26 0.24 0.16 0.18 0.23 0.22 0.22 0.43 0.45 0.47 0.50 0.53 0.57 0.62 0.68 0.68 0.67 0.67 0.64 0.62 0.59 0.55 0.52 0.50 0.46 0.42 0.38 0.38 0.42 0.44 0.44 0.44 0.43 0.42 0.46 0.45 0.45
0.32 0.22 0.16 0.22 0.30 0.30 0.26 0.27 0.27 0.26 0.25 0.19 0.17 0.18 0.44 0.49 0.50 0.55 0.55 0.59 0.62 0.65 0.66 0.66 0.63 0.59 0.53 0.48 0.46 0.45 0.44 0.39 0.33 0.29 0.28 0.27 0.26 0.28 0.34 0.43 0.40 0.38 0.41 0.42
0.36 0.23 0.18 0.13 0.17 0.22 0.20 0.22 0.27 0.26 0.21 0.22 0.23 0.25 0.36 0.43 0.45 0.51 0.55 0.58 0.60 0.63 0.65 0.61 0.55 0.52 0.48 0.46 0.44 0.42 0.37 0.32 0.31 0.27 0.25 0.23 0.24 0.26 0.32 0.36 0.40 0.45 0.49 0.42
0.31 0.17 0.21 0.22 0.24 0.24 0.22 0.21 0.23 0.22 0.24 0.21 0.24 0.27 0.37 0.43 0.47 0.52 0.56 0.59 0.60 0.60 0.58 0.56 0.52 0.48 0.45 0.42 0.38 0.33 0.31 0.31 0.29 0.26 0.24 0.24 0.24 0.26 0.30 0.35 0.37 0.39 0.37 0.35
0.31 0.18 0.18 0.16 0.24 0.23 0.19 0.20 0.21 0.22 0.24 0.26 0.29 0.31 0.46 0.51 0.55 0.55 0.57 0.57 0.56 0.55 0.54 0.51 0.50 0.44 0.40 0.34 0.31 0.31 0.30 0.28 0.27 0.24 0.25 0.25 0.25 0.26 0.29 0.31 0.34 0.37 0.34 0.28
0.22 0.18 0.16 0.13 0.23 0.20 0.15 0.22 0.22 0.26 0.30 0.29 0.25 0.35 0.47 0.48 0.51 0.53 0.55 0.56 0.55 0.54 0.52 0.49 0.43 0.37 0.33 0.31 0.31 0.30 0.28 0.27 0.26 0.26 0.26 0.25 0.25 0.26 0.29 0.33 0.36 0.37 0.31 0.33
0.23 0.23 0.21 0.15 0.19 0.10 0.25 0.30 0.30 0.29 0.33 0.36 0.38 0.43 0.48 0.51 0.56 0.58 0.60 0.57 0.54 0.51 0.47 0.42 0.36 0.33 0.33 0.32 0.31 0.30 0.27 0.27 0.25 0.25 0.25 0.26 0.26 0.26 0.29 0.34 0.36 0.38 0.37 0.34
0.32 0.25 0.19 0.14 0.14 0.16 0.21 0.29 0.28 0.26 0.29 0.41 0.42 0.47 0.50 0.52 0.53 0.53 0.59 0.55 0.51 0.48 0.44 0.40 0.35 0.34 0.33 0.32 0.31 0.28 0.27 0.25 0.26 0.25 0.26 0.26 0.27 0.26 0.30 0.33 0.34 0.35 0.34 0.27
0.36 0.32 0.21 0.19 0.13 0.10 0.21 0.33 0.39 0.36 0.20 0.43 0.44 0.45 0.47 0.50 0.39 0.46 0.55 0.56 0.51 0.46 0.44 0.37 0.35 0.33 0.32 0.31 0.30 0.28 0.27 0.28 0.26 0.26 0.26 0.27 0.28 0.29 0.31 0.33 0.34 0.34 0.27 0.29
0.24 0.25 0.18 0.19 0.16 0.18 0.28 0.37 0.43 0.22 0.20 0.42 0.46 0.48 0.48 0.44 0.48 0.50 0.55 0.52 0.48 0.45 0.40 0.34 0.33 0.32 0.32 0.31 0.30 0.28 0.28 0.26 0.26 0.26 0.28 0.29 0.29 0.30 0.31 0.31 0.29 0.28 0.30 0.31
0.19 0.19 0.19 0.23 0.19 0.15 0.33 0.37 0.28 0.31 0.43 0.48 0.52 0.53 0.52 0.54 0.53 0.52 0.54 0.48 0.45 0.39 0.33 0.34 0.33 0.32 0.30 0.30 0.27 0.24 0.23 0.25 0.26 0.27 0.28 0.27 0.28 0.29 0.30 0.29 0.30 0.30 0.29 0.25
0.22 0.24 0.21 0.24 0.22 0.33 0.40 0.40 0.47 0.51 0.48 0.52 0.56 0.59 0.58 0.53 0.54 0.53 0.48 0.44 0.40 0.33 0.33 0.34 0.31 0.27 0.25 0.23 0.22 0.21 0.24 0.27 0.27 0.27 0.27 0.27 0.27 0.28 0.29 0.28 0.26 0.24 0.23 0.22
0.32 0.39 0.30 0.32 0.35 0.40 0.46 0.53 0.59 0.60 0.58 0.63 0.64 0.59 0.57 0.55 0.54 0.48 0.45 0.42 0.35 0.34 0.33 0.29 0.24 0.19 0.19 0.20 0.23 0.25 0.27 0.28 0.27 0.27 0.29 0.29 0.27 0.25 0.25 0.25 0.23 0.22 0.23 0.23
0.31 0.39 0.33 0.34 0.43 0.49 0.52 0.54 0.57 0.59 0.64 0.64 0.63 0.64 0.60 0.54 0.48 0.46 0.41 0.37 0.33 0.31 0.26 0.22 0.19 0.19 0.20 0.22 0.23 0.25 0.27 0.28 0.26 0.30 0.32 0.30 0.28 0.26 0.24 0.23 0.24 0.25 0.25 0.24
0.36 0.33 0.30 0.28 0.41 0.42 0.44 0.54 0.61 0.61 0.59 0.62 0.61 0.56 0.56 0.51 0.46 0.42 0.37 0.33 0.30 0.23 0.20 0.19 0.20 0.20 0.21 0.22 0.21 0.24 0.29 0.29 0.29 0.30 0.32 0.32 0.30 0.28 0.26 0.24 0.23 0.26 0.26 0.24
Wind_Speed
8 7 9 9 7 6 4 2 8 9 7 4 3 4 4 4 6 3 2 2 1 1 2 3 3 6 7 8 9 13 14 18 19 19 18 18 21 23 25 27 28 30 32 35
5 8 7 5 4 3 4 5 6 6 2 3 5 3 3 4 3 4 4 3 2 1 2 3 5 7 6 10 13 15 16 17 18 18 20 23 25 26 28 29 31 34 35 37
9 7 6 5 3 3 3 7 5 5 2 4 8 1 4 3 3 2 1 1 1 2 2 5 7 10 11 13 14 16 16 17 19 22 24 26 27 29 30 32 33 33 35 37
6 4 5 4 3 4 5 7 6 5 5 7 6 6 5 6 4 3 2 3 3 3 3 7 9 11 12 14 16 17 18 20 22 24 26 28 28 29 31 32 33 35 37 39
6 5 4 3 4 4 6 5 5 6 6 6 6 6 10 10 6 6 5 5 4 6 9 10 12 14 15 16 17 19 21 23 24 25 26 26 27 29 31 34 36 38 40 41
5 4 3 4 3 4 5 4 3 4 4 5 9 8 12 11 10 8 7 8 9 10 11 12 13 15 16 18 19 19 20 22 23 25 27 28 30 33 35 36 39 41 43 44
4 2 1 2 2 1 1 2 3 3 4 7 7 4 9 10 10 10 10 11 12 12 13 14 15 15 17 17 18 20 22 24 25 27 29 32 33 34 36 39 44 44 47 47
5 1 2 1 3 2 2 3 3 4 4 5 5 5 8 8 8 9 10 10 11 13 13 15 16 17 18 17 18 19 20 23 25 28 30 33 35 37 40 45 49 50 49 47
7 4 3 4 3 3 1 3 2 2 3 3 6 4 5 7 7 8 12 14 12 13 13 11 14 16 18 18 20 21 23 26 29 32 35 38 41 44 48 50 51 49 48 48
6 6 4 4 5 5 5 2 3 4 1 3 5 5 7 8 8 9 10 10 10 10 11 13 15 16 19 21 23 26 29 32 34 38 41 43 45 47 50 51 50 48 48 47
6 6 4 4 3 2 3 3 4 3 2 1 3 7 8 7 6 6 8 8 8 10 13 14 16 19 22 24 28 30 33 35 38 42 43 45 47 49 50 49 48 48 48 48
6 7 5 4 2 1 1 2 3 3 4 3 3 7 5 5 4 5 7 9 10 12 15 16 19 23 25 28 31 33 35 38 41 43 45 47 49 50 51 49 49 50 50 49
6 4 3 0 1 2 1 2 2 3 4 4 4 8 5 6 7 8 8 11 13 14 16 20 23 26 28 31 33 35 38 40 42 45 47 49 52 53 53 51 50 48 47 47
6 4 4 5 3 3 3 5 4 4 5 6 7 8 8 9 9 10 11 12 15 17 20 23 26 29 30 33 36 37 39 41 45 47 49 52 53 53 50 46 46 47 47 47
5 5 4 3 3 5 6 5 7 7 9 8 12 12 9 10 10 11 13 15 18 21 24 26 28 29 32 35 37 38 40 44 46 48 50 51 52 51 49 49 49 48 45 41
6 6 6 6 6 7 8 10 10 11 11 12 9 11 11 11 12 14 16 18 20 23 26 28 30 31 34 35 37 40 43 45 47 49 50 51 53 52 51 49 47 43 38 32
7 7 6 9 8 10 9 9 10 10 11 12 12 13 13 14 15 17 19 21 23 26 28 30 31 34 35 37 39 42 44 46 48 50 50 52 53 53 50 47 41 37 30 27
9 8 8 9 9 9 11 12 11 8 12 10 11 13 14 16 18 20 23 25 27 29 30 31 33 35 36 38 41 44 45 47 49 50 52 52 53 51 48 41 35 29 26 25
10 10 9 10 11 14 15 12 11 12 14 15 13 15 17 19 21 24 25 27 28 29 31 32 34 35 37 40 43 45 47 48 50 51 53 53 51 48 42 35 30 24 24 21
11 11 11 12 12 14 15 13 12 13 19 15 16 18 19 20 24 27 28 29 29 31 32 33 35 37 39 42 45 46 48 49 51 52 53 52 49 44 37 31 27 24 21 21
13 14 14 14 16 19 18 17 15 14 20 17 20 21 22 24 27 27 28 28 29 30 32 33 35 38 42 45 45 47 49 51 51 52 52 51 45 38 32 26 23 22 21 20
16 15 17 15 16 21 16 15 18 21 22 22 23 24 25 27 28 28 28 28 29 30 32 35 38 41 43 44 47 49 50 50 50 51 51 46 38 32 27 25 23 21 19 18
18 20 18 19 19 21 22 23 24 24 24 25 25 26 27 28 29 28 27 27 29 31 34 37 40 43 45 47 49 49 50 49 50 49 46 39 33 27 24 21 20 19 19 19
21 21 22 20 24 25 26 25 26 26 27 27 27 28 29 28 29 27 27 29 31 34 37 41 43 45 46 48 48 48 49 51 49 45 40 35 29 25 22 20 19 18 18 19
20 20 22 26 26 25 25 27 28 28 27 27 28 29 28 27 27 26 28 30 34 37 40 42 44 45 47 48 48 50 50 50 46 39 35 30 25 22 20 18 18 19 20 20
21 24 24 27 26 28 29 29 28 27 28 29 28 27 27 26 25 27 30 33 36 40 42 43 45 46 47 48 49 50 49 47 42 36 31 26 23 21 19 18 19 20 21 20
Wind_Direction
149 143 158 163 167 183 199 231 182 175 183 183 158 143 171 165 154 166 118 134 173 314 297 296 293 297 291 282 284 288 287 292 291 293 293 295 300 302 302 304 303 305 305 305
154 163 178 191 173 166 172 113 121 135 148 172 148 112 159 164 166 155 150 131 167 216 292 301 308 310 297 291 294 293 293 291 291 294 297 298 299 300 302 304 305 306 307 308
164 180 183 166 170 163 182 159 162 173 165 129 135 134 166 193 175 172 179 217 249 246 263 299 305 300 300 298 294 296 297 297 295 296 297 299 299 300 302 303 304 306 308 309
148 169 158 160 165 184 179 194 199 209 209 200 237 222 244 211 207 229 234 228 251 240 280 297 301 304 300 296 298 299 299 299 298 299 300 301 301 301 303 305 305 306 308 309
190 160 156 172 202 195 206 221 224 234 224 227 245 227 232 238 246 244 245 239 255 262 295 298 299 301 300 300 298 297 297 298 299 302 303 303 305 305 305 306 307 307 308 308
154 176 187 216 222 218 231 233 245 244 237 244 257 236 238 245 238 246 251 267 274 287 295 301 307 307 304 302 301 299 304 304 303 304 304 304 304 305 305 306 307 307 305 306
142 143 196 166 182 227 8 219 248 266 262 232 259 274 262 242 242 244 254 269 280 286 294 298 309 310 310 311 306 305 305 308 308 308 307 307 306 306 306 307 309 307 307 306
162 151 133 127 140 154 86 124 173 199 217 241 287 265 273 240 231 242 266 271 283 291 294 301 309 314 320 320 321 317 313 313 313 312 312 312 310 309 309 309 310 306 307 306
156 153 147 130 125 134 91 79 139 116 298 275 272 289 278 248 253 264 275 279 285 299 306 300 312 320 325 324 323 321 318 317 315 315 313 312 310 309 309 310 310 307 307 306
165 138 144 119 101 75 101 90 29 2 340 305 298 262 271 261 271 283 298 296 292 296 305 309 313 315 320 320 319 318 317 315 314 313 312 312 311 310 310 311 310 307 307 305
154 146 167 127 117 103 38 33 37 43 19 303 301 294 289 254 271 284 295 299 289 295 305 308 311 313 316 317 317 317 317 316 315 314 313 312 312 311 310 309 308 307 306 304
154 145 144 153 167 125 60 35 27 18 328 347 330 307 319 278 280 286 289 295 295 299 301 305 308 310 312 314 316 317 317 317 317 317 316 314 314 313 312 310 309 308 306 306
164 163 145 307 259 330 32 346 359 3 348 312 336 308 299 307 311 307 300 299 296 294 300 303 306 309 311 313 315 316 316 317 317 318 317 317 317 315 312 309 309 309 308 309
180 172 185 197 219 253 293 319 312 321 325 307 292 294 293 292 299 301 301 299 297 296 300 305 307 309 309 312 315 316 317 318 319 319 319 319 319 318 315 312 311 311 308 309
198 203 230 240 283 282 288 303 307 295 299 300 299 294 294 290 293 296 301 304 307 305 305 307 309 309 312 315 317 318 319 320 320 321 321 321 322 321 318 314 311 309 307 307
234 227 247 255 289 303 295 298 294 293 296 299 313 318 307 306 305 305 304 306 307 306 306 307 310 310 313 315 316 318 319 320 320 322 322 322 322 321 318 315 313 310 309 306
234 230 253 264 285 296 300 281 295 307 314 301 297 301 301 303 301 300 301 303 304 305 305 306 308 310 312 314 316 318 319 320 321 323 322 322 323 322 320 318 315 311 309 309
232 246 259 262 284 286 279 297 292 304 310 313 313 305 302 298 301 302 302 303 303 303 305 308 308 310 312 314 316 318 319 320 321 322 323 323 323 322 320 319 317 312 311 309
245 247 262 263 266 284 289 280 284 294 300 300 302 303 304 303 305 303 303 305 305 305 307 309 309 311 313 315 316 317 318 320 322 322 323 323 322 322 321 318 318 312 314 311
255 256 258 265 271 273 278 284 289 300 303 287 298 299 300 304 305 305 303 306 305 308 309 310 312 313 314 316 317 318 320 321 322 322 322 322 322 320 318 314 312 311 310 311
260 266 260 268 274 283 276 279 289 301 298 294 300 301 300 303 305 306 307 307 306 309 311 314 316 316 316 318 319 320 320 320 321 322 323 322 320 319 318 315 314 311 309 308
252 257 265 270 278 283 269 278 281 292 298 296 300 300 301 305 305 307 307 307 311 313 314 316 317 318 319 319 320 319 319 320 321 322 322 322 321 319 316 313 311 310 310 309
263 259 265 261 271 279 276 282 288 290 294 296 298 300 302 304 306 306 308 310 312 313 315 316 318 318 319 319 320 319 319 319 320 321 322 321 320 318 317 315 314 312 311 311
267 265 269 276 278 276 279 285 286 290 294 296 297 299 302 304 305 307 307 310 312 314 315 317 318 318 319 320 320 320 320 320 319 319 319 320 318 316 316 315 314 314 313 313
269 270 273 276 280 283 285 284 286 289 292 294 296 299 300 304 303 304 307 310 312 314 316 317 318 319 319 320 320 320 320 321 319 316 317 317 315 315 315 314 314 314 313 313
272 272 274 277 277 280 284 284 283 286 289 292 294 301 301 302 302 305 308 310 312 314 316 317 318 318 319 320 321 321 321 322 321 316 313 312 312 312 311 312 313 315 313 313